Wind_Speed
16 16 16 16 16 17 17 17 17 16 16 16 16 17 18 18 19 19 20 20 20 20 20 20 20 20 19 19 20 20 20 20 21 21 21 21 21 21 22 22 23 23 23 23
16 16 16 16 16 17 17 17 17 17 16 17 17 18 18 19 19 20 21 21 21 21 21 21 21 21 21 20 20 21 21 21 21 21 21 21 21 22 22 22 23 23 23 24
17 17 17 16 16 17 17 17 17 17 16 17 18 18 19 20 20 20 21 21 22 21 21 21 21 21 21 21 21 21 22 22 22 22 22 22 21 21 22 22 23 23 24 24
19 18 19 18 18 19 19 18 18 18 17 17 18 18 19 20 20 21 21 22 22 22 22 22 22 22 22 22 21 21 22 22 22 22 23 23 22 22 22 22 22 23 24 24
20 20 20 19 19 20 20 19 20 20 20 20 20 20 21 21 21 21 21 21 22 22 22 23 23 24 24 24 23 23 22 22 22 22 23 24 24 24 23 23 23 23 24 23
22 22 21 20 20 21 21 21 22 22 22 22 22 22 22 23 23 23 22 22 22 22 23 24 24 25 24 24 24 24 24 24 23 24 24 25 25 26 26 25 25 24 24 25
23 23 22 22 22 22 22 23 23 23 24 24 24 24 24 24 24 24 24 23 23 23 24 24 24 24 24 24 24 24 24 25 25 25 25 26 26 26 26 26 26 26 26 26
23 23 22 22 23 24 24 24 24 24 25 25 25 26 26 26 25 25 25 24 24 24 24 24 24 25 25 24 24 24 25 25 26 26 27 28 28 28 28 28 27 26 26 26
24 23 23 23 24 24 24 25 25 25 25 26 26 27 27 27 26 26 26 25 24 24 25 25 25 25 25 25 25 25 25 26 27 28 28 29 29 29 30 29 28 28 28 28
25 24 24 24 25 25 25 25 25 26 26 26 27 27 27 26 25 25 25 25 25 25 25 25 25 25 25 26 26 26 26 26 27 29 29 30 29 30 30 30 30 30 30 30
26 25 25 25 25 25 25 26 26 26 27 27 27 26 26 26 25 25 25 25 25 25 25 25 25 26 26 27 27 28 28 29 29 30 30 30 31 31 31 31 31 31 32 32
26 26 26 26 26 26 26 26 26 27 27 27 27 26 26 26 25 25 25 25 25 26 26 26 26 27 28 28 29 29 30 30 30 30 31 31 32 32 33 33 33 33 33 33
26 26 26 26 25 25 26 26 27 27 27 27 27 27 26 26 25 25 26 26 26 27 27 27 27 28 29 29 29 29 29 30 31 31 32 33 33 33 34 34 34 34 34 34
26 26 26 25 25 25 26 26 27 27 27 27 27 27 27 26 26 26 27 27 28 28 28 28 28 29 29 29 30 30 31 31 31 31 32 32 32 33 33 33 34 34 34 33
26 26 26 26 26 26 27 27 28 28 28 28 28 28 28 28 28 28 28 28 29 29 29 29 29 29 30 30 31 31 31 31 31 31 31 31 31 32 32 33 33 33 33 33
26 26 26 26 27 27 28 29 29 29 29 30 30 29 29 29 29 29 28 28 29 29 30 30 30 30 31 31 31 31 32 31 31 31 31 31 31 32 32 32 32 32 32 33
26 26 26 27 27 28 28 29 30 30 30 30 30 29 29 29 29 29 29 29 30 31 31 31 31 32 32 32 32 32 32 32 32 32 32 32 32 32 32 32 32 32 32 33
25 26 26 27 27 28 28 29 29 30 29 29 28 28 28 29 29 30 30 31 31 32 32 32 33 33 32 32 32 33 32 32 32 32 32 32 33 33 32 32 32 33 33 34
26 26 26 26 27 27 28 28 28 27 27 27 28 28 29 29 29 30 31 32 33 33 33 33 33 32 32 32 31 31 32 32 32 33 33 33 33 32 32 32 32 33 33 33
26 26 27 26 27 27 27 27 26 26 27 27 28 28 28 29 30 31 31 32 33 33 33 33 33 33 32 32 32 32 32 32 32 33 33 33 33 32 32 32 32 32 33 34
27 27 27 28 27 27 27 27 26 26 27 27 28 28 28 29 29 30 31 31 31 31 32 32 32 32 32 32 33 32 32 33 33 33 33 33 32 32 32 32 33 33 33 34
27 27 27 27 26 26 26 26 26 26 27 27 27 28 28 28 29 29 29 30 30 30 31 30 30 31 32 32 32 32 33 33 33 33 33 32 33 33 33 33 33 33 33 34
26 26 26 26 26 26 26 26 26 26 26 26 27 27 27 28 28 28 29 29 30 29 29 29 30 30 31 32 32 32 32 33 33 33 33 33 33 33 33 33 33 33 33 34
25 26 26 26 26 25 25 25 25 26 26 26 27 27 27 28 28 29 30 30 29 29 29 29 30 30 31 31 32 32 33 33 33 33 33 33 33 33 33 33 33 33 33 34
25 25 25 25 25 25 26 26 26 26 26 26 27 27 28 28 29 29 30 30 29 29 29 30 30 30 31 31 32 32 33 32 32 32 32 33 32 32 32 32 32 33 33 33
26 25 25 25 25 25 26 26 26 26 26 26 26 27 27 28 29 29 30 30 29 29 29 30 30 30 31 31 32 32 32 32 32 32 32 32 32 31 31 31 32 32 32 32
25 25 25 25 25 25 26 26 26 26 27 27 27 27 27 28 28 28 28 28 28 28 28 28 29 30 30 31 31 31 31 31 31 31 31 32 32 32 31 31 31 32 32 32
Wind_Direction
277 275 275 276 278 281 281 284 285 286 285 284 282 282 282 283 284 284 283 283 283 283 283 283 283 285 285 283 282 281 280 279 279 278 277 276 277 278 279 276 273 272 270 267
276 277 276 276 279 281 282 284 286 286 285 283 282 284 285 285 284 283 283 283 283 283 282 283 284 285 285 282 281 279 278 278 279 279 278 277 278 279 279 276 274 272 271 269
274 275 277 277 281 281 282 283 285 286 287 285 285 287 288 288 287 286 284 283 282 283 282 282 283 284 284 284 282 280 278 277 278 279 279 278 279 280 279 278 276 275 272 273
274 274 275 279 279 279 281 283 283 283 284 285 287 289 290 292 293 292 289 286 284 282 282 282 282 282 282 284 283 282 280 279 279 278 278 278 278 278 277 277 278 279 277 273
275 276 277 278 278 279 281 282 281 282 284 285 286 288 291 292 293 294 293 290 287 284 282 283 283 283 283 284 283 282 282 280 280 279 277 278 279 278 278 277 278 278 278 276
278 278 279 280 280 280 282 281 282 282 282 284 285 286 288 288 289 290 291 291 289 286 284 283 284 283 283 283 282 281 281 280 279 279 279 280 280 279 278 278 279 278 277 277
277 279 280 282 283 283 283 284 282 282 283 283 285 286 287 289 288 287 288 289 288 286 286 284 283 283 282 281 281 281 280 280 278 278 278 278 279 279 278 278 277 276 276 276
275 277 280 283 283 283 283 283 282 282 282 283 284 286 287 287 288 287 287 287 287 286 286 285 284 284 284 282 282 281 281 281 280 278 278 278 278 278 279 278 277 275 274 274
275 277 279 280 282 284 284 284 284 283 283 283 285 286 287 287 287 287 287 285 285 285 285 285 285 285 284 283 283 282 282 282 281 280 279 278 278 279 279 278 276 276 275 275
274 275 278 279 280 282 283 284 285 284 284 284 286 287 287 287 287 287 286 285 283 284 285 285 285 286 285 285 285 284 283 283 283 282 281 280 279 279 278 277 276 276 277 277
272 274 275 278 280 282 283 284 284 285 286 287 287 287 287 287 287 286 285 284 284 283 283 284 284 285 285 285 285 285 284 284 283 282 281 280 280 279 278 278 278 278 278 278
272 273 275 277 280 282 284 284 285 285 285 286 287 287 287 287 286 286 285 285 284 284 285 284 284 284 284 285 286 286 285 285 285 284 282 281 280 280 279 279 279 279 278 278
272 273 275 277 280 282 283 284 285 285 284 285 285 285 286 286 286 285 285 285 286 286 285 287 287 285 284 284 285 286 286 287 286 286 285 284 283 281 281 280 279 279 278 277
272 274 276 278 279 281 282 283 285 286 286 286 286 286 285 285 285 285 286 287 287 288 288 287 288 287 285 284 285 287 287 287 287 286 286 285 284 283 281 281 280 279 278 277
275 277 278 279 279 281 282 283 284 285 286 286 286 285 284 284 284 285 286 287 288 289 289 289 289 289 288 289 289 288 288 288 288 287 286 286 285 284 283 282 281 279 277 277
276 277 278 279 280 281 282 282 283 284 285 285 285 285 283 283 284 284 285 286 287 288 290 289 290 291 291 291 291 290 289 288 288 287 287 286 286 285 285 283 281 279 278 277
275 277 279 280 281 282 281 282 284 284 284 284 285 285 284 282 282 283 284 285 287 289 292 293 293 293 293 293 292 292 292 290 288 288 287 287 286 285 285 283 281 279 278 278
278 279 280 281 283 283 283 283 285 285 284 284 284 284 284 283 283 284 285 286 286 288 290 292 292 293 293 292 292 292 292 290 288 288 288 287 286 286 285 284 282 281 280 279
278 279 282 285 286 285 285 286 286 285 285 286 286 287 286 285 285 285 286 288 287 288 289 290 292 292 293 292 292 292 291 291 290 289 289 288 287 286 286 285 284 283 281 281
279 280 283 285 286 286 287 287 287 286 287 287 288 288 287 286 286 288 288 289 289 289 289 290 290 291 291 291 291 291 291 291 291 290 289 288 287 286 286 285 285 284 283 282
279 281 283 285 285 285 286 287 287 287 287 288 289 289 288 289 290 290 291 291 291 291 291 290 290 290 290 290 291 291 292 291 290 290 289 288 287 286 285 285 284 284 284 283
280 281 282 284 285 284 285 286 286 286 288 289 289 288 289 290 292 292 293 293 293 293 293 292 292 291 291 291 291 293 293 293 291 290 289 288 287 286 285 285 284 285 285 285
280 282 283 284 284 285 286 287 288 288 289 290 291 291 292 293 294 295 295 295 295 294 293 293 293 293 293 293 293 293 293 294 292 290 290 289 288 287 286 286 286 286 286 286
282 283 283 283 284 285 286 287 288 289 290 291 292 293 293 294 296 297 296 296 295 294 293 294 293 294 295 296 296 294 294 294 294 293 291 290 289 287 287 286 286 286 287 287
282 282 283 283 284 284 285 286 287 288 289 290 291 292 293 294 296 297 297 297 296 295 295 296 296 296 296 296 297 297 297 295 295 295 293 292 292 290 287 287 287 287 288 288
282 282 283 284 284 284 285 285 286 287 289 290 291 292 294 295 296 297 296 297 297 297 298 298 299 298 297 298 298 298 298 298 297 296 295 294 293 293 291 289 288 288 289 290
282 283 284 284 284 285 285 286 288 289 290 291 292 293 295 295 297 298 298 299 299 300 300 300 300 300 300 300 300 300 299 299 299 298 296 295 295 294 293 292 291 290 291 291
Height
5792 5791 5791 5791 5790 5790 5789 5789 5789 5789 5788 5788 5786 5786 5785 5784 5782 5781 5780 5779 5778 5777 5776 5775 5774 5772 5771 5770 5769 5768 5767 5766 5766 5765 5764 5764 5763 5762 5762 5761 5761 5760 5760 5760
5787 5787 5786 5786 5786 5786 5785 5784 5784 5783 5783 5782 5781 5780 5779 5778 5777 5775 5774 5773 5772 5771 5770 5769 5768 5767 5765 5764 5763 5762 5761 5760 5760 5759 5758 5758 5757 5756 5755 5755 5754 5754 5754 5753
5782 5782 5781 5782 5782 5781 5780 5779 5779 5779 5779 5777 5776 5775 5773 5772 5771 5769 5768 5767 5766 5765 5763 5762 5761 5760 5759 5758 5757 5756 5755 5754 5753 5752 5752 5751 5750 5750 5749 5748 5748 5747 5747 5746
5777 5777 5776 5780 5777 5776 5775 5775 5774 5773 5773 5772 5771 5769 5768 5766 5765 5763 5762 5760 5759 5758 5757 5756 5754 5753 5752 5751 5750 5749 5748 5747 5746 5746 5745 5744 5744 5743 5742 5742 5741 5741 5740 5739
5772 5771 5771 5772 5772 5770 5770 5770 5769 5768 5767 5766 5765 5764 5763 5761 5759 5757 5755 5754 5752 5751 5750 5749 5748 5746 5745 5744 5743 5742 5741 5740 5740 5739 5738 5737 5736 5736 5736 5735 5734 5734 5733 5732
5766 5765 5766 5767 5766 5764 5765 5764 5764 5762 5761 5760 5759 5759 5758 5755 5753 5751 5749 5748 5746 5744 5743 5742 5740 5739 5738 5737 5736 5735 5734 5733 5732 5731 5731 5730 5729 5728 5728 5727 5727 5726 5726 5726
5760 5759 5760 5760 5759 5758 5759 5759 5757 5755 5754 5753 5752 5752 5750 5748 5746 5744 5742 5741 5739 5738 5736 5734 5733 5732 5731 5730 5729 5728 5727 5726 5724 5724 5723 5722 5721 5720 5720 5720 5719 5719 5718 5718
5754 5753 5756 5753 5752 5752 5751 5750 5749 5748 5747 5746 5745 5744 5742 5740 5739 5737 5735 5734 5732 5730 5729 5727 5726 5725 5723 5722 5721 5720 5719 5718 5717 5716 5715 5714 5713 5713 5712 5711 5711 5710 5710 5709
5748 5750 5748 5746 5745 5744 5743 5742 5741 5741 5740 5738 5737 5736 5734 5732 5731 5729 5727 5726 5724 5723 5722 5720 5719 5717 5716 5715 5714 5712 5711 5710 5709 5708 5707 5705 5705 5704 5703 5702 5702 5702 5701 5700
5740 5741 5740 5739 5738 5737 5736 5735 5734 5733 5732 5730 5729 5728 5726 5724 5723 5721 5720 5718 5717 5715 5714 5713 5711 5710 5709 5707 5706 5705 5703 5702 5701 5699 5698 5697 5696 5695 5694 5693 5692 5692 5692 5691
5733 5733 5732 5732 5731 5730 5729 5728 5726 5725 5724 5722 5721 5719 5718 5716 5715 5713 5712 5710 5709 5708 5707 5705 5703 5702 5701 5699 5698 5696 5695 5693 5692 5690 5689 5687 5686 5685 5684 5684 5683 5682 5682 5681
5725 5725 5724 5725 5723 5722 5721 5720 5719 5717 5716 5714 5713 5711 5710 5708 5707 5706 5704 5703 5701 5700 5698 5697 5695 5693 5692 5691 5689 5687 5686 5684 5683 5681 5679 5678 5676 5675 5674 5673 5672 5671 5671 5670
5717 5717 5716 5716 5716 5714 5713 5712 5711 5709 5708 5706 5705 5703 5702 5700 5699 5697 5696 5695 5693 5692 5690 5688 5686 5685 5683 5681 5680 5678 5677 5675 5673 5671 5669 5667 5666 5664 5663 5662 5660 5660 5659 5659
5709 5709 5708 5708 5707 5706 5705 5704 5702 5701 5699 5698 5696 5695 5694 5692 5691 5689 5688 5686 5685 5683 5681 5679 5678 5676 5674 5672 5670 5668 5667 5665 5663 5661 5659 5657 5655 5653 5652 5650 5650 5648 5648 5647
5701 5701 5700 5700 5699 5698 5697 5695 5694 5693 5691 5689 5687 5686 5685 5684 5682 5681 5679 5678 5676 5674 5672 5670 5668 5667 5664 5662 5661 5659 5657 5655 5653 5651 5649 5647 5645 5643 5641 5639 5638 5637 5637 5636
5693 5693 5692 5691 5690 5689 5688 5687 5685 5684 5682 5680 5678 5677 5675 5674 5673 5672 5670 5669 5667 5665 5663 5661 5659 5657 5655 5653 5651 5649 5647 5645 5643 5641 5639 5637 5634 5632 5630 5629 5627 5626 5626 5625
5686 5685 5684 5683 5682 5681 5679 5677 5676 5674 5673 5671 5669 5667 5666 5665 5664 5663 5662 5660 5658 5656 5654 5652 5650 5648 5645 5643 5641 5639 5637 5635 5633 5631 5628 5626 5624 5622 5620 5618 5617 5616 5615 5614
5678 5677 5675 5674 5673 5671 5669 5668 5666 5664 5663 5661 5660 5658 5657 5656 5655 5654 5652 5651 5649 5647 5645 5642 5640 5638 5636 5633 5631 5629 5627 5625 5623 5620 5618 5616 5614 5612 5610 5608 5607 5605 5604 5603
5669 5668 5667 5666 5664 5662 5660 5658 5657 5655 5654 5652 5651 5650 5648 5647 5646 5644 5643 5641 5639 5637 5635 5633 5630 5628 5626 5624 5621 5619 5617 5615 5612 5610 5608 5606 5603 5601 5599 5598 5596 5594 5593 5592
5661 5660 5659 5657 5656 5654 5652 5650 5648 5647 5646 5644 5642 5641 5639 5638 5636 5635 5633 5631 5629 5626 5625 5622 5620 5618 5616 5614 5611 5609 5607 5604 5602 5600 5597 5595 5593 5591 5589 5587 5585 5584 5582 5580
5653 5652 5651 5649 5648 5646 5644 5642 5640 5639 5637 5635 5633 5632 5630 5628 5627 5625 5622 5621 5618 5616 5614 5611 5609 5607 5605 5603 5601 5599 5596 5594 5591 5589 5586 5584 5582 5580 5578 5576 5574 5573 5571 5569
5645 5644 5642 5641 5639 5638 5636 5634 5632 5630 5629 5627 5625 5623 5621 5619 5617 5615 5613 5611 5609 5606 5604 5601 5599 5597 5594 5592 5590 5588 5585 5583 5580 5578 5576 5573 5571 5569 5567 5565 5563 5562 5560 5558
5636 5635 5634 5632 5631 5630 5628 5626 5624 5623 5621 5619 5617 5614 5612 5610 5608 5606 5604 5602 5599 5596 5594 5592 5589 5587 5584 5582 5580 5577 5575 5572 5569 5567 5565 5562 5560 5558 5556 5554 5552 5550 5548 5546
5628 5627 5626 5624 5623 5621 5620 5618 5616 5615 5613 5611 5608 5606 5604 5602 5600 5597 5594 5592 5589 5587 5585 5582 5580 5577 5575 5572 5569 5567 5564 5562 5559 5556 5553 5551 5549 5546 5544 5542 5540 5539 5537 5535
5620 5619 5617 5616 5615 5613 5612 5610 5608 5607 5605 5603 5600 5598 5596 5593 5591 5588 5586 5583 5580 5578 5575 5573 5570 5568 5565 5562 5560 5557 5554 5551 5548 5545 5543 5540 5538 5535 5533 5531 5529 5527 5525 5523
5612 5611 5610 5608 5607 5605 5604 5602 5600 5598 5596 5594 5592 5590 5587 5585 5582 5579 5577 5574 5571 5569 5566 5564 5561 5558 5556 5553 5550 5547 5544 5541 5538 5535 5533 5530 5527 5525 5522 5520 5518 5516 5514 5511
5604 5603 5602 5600 5599 5597 5596 5594 5592 5590 5588 5586 5584 5582 5579 5576 5573 5571 5568 5565 5563 5560 5557 5555 5552 5550 5547 5544 5541 5538 5534 5531 5528 5525 5522 5520 5517 5514 5512 5509 5507 5505 5503 5500